Tracking 17925 objects as of 21-January-2017
HD Live streaming from Space Station
objects crossing your sky now

GLOBALSTAR M082

Track GLOBALSTAR M082 now!
10-day predictions
GLOBALSTAR M082 is classified as:


NORAD ID: 38042
Int'l Code: 2011-080C
Perigee: 1,420.3 km
Apogee: 1,421.2 km
Inclination: 52.0 °
Period: 114.1 minutes
Semi major axis: 7791 km
RCS: 4.8173 m2 (large)
Launch date: December 28, 2011
Source: Globalstar (GLOB)
Launch site: TYURATAM MISSILE AND SPACE COMPLEX (TTMTR)
Your satellite tracking list
Your tracking list is empty





NASA's NSSDC Master Catalog

Two Line Element Set (TLE):
1 38042U 11080C   17021.21897005 -.00000096  00000-0  44648-4 0  9996
2 38042  52.0093 347.3072 0000600  59.4111  43.2388 12.62264679236094
Source of the keplerian elements: AFSPC